Location: Bosdarros
(43.2167°N, 0.3667°W)
Time: 11:37:51
(UTC+00:00)

FENGYUN 1C DEB - Pass Details

Date: 28 October 2021
Orbit: 805 x 871 km, 98.8° (Epoch: 26 November)

Event Time Altitude Azimuth Distance (km) Brightness Sun altitude
Exits shadow 19:44:12 61° 258° (WSW) 919 ? -30.7°
Maximum altitude 19:44:12 61° 259° (WSW) 919 ? -30.7°
Drops below altitude 10° 19:49:28 10° 339° (NNW) 2,412 ? -31.6°
Sets 19:51:52 0° 343° (NNW) 3,356 ? -32.1°
